Puntzi Mountain, British Columbia

5:08 AM PDT on September 26, 2017 (GMT -0700)
Puntzi Mountain

Weather History for CWPU - February, 2014

Change the Weather History Date:

Thursday, February 27, 2014

  Actual Average Record
Temperature  
Mean Temperature 20 °F -  
Max Temperature 38 °F - - ()
Min Temperature 3 °F - - ()
Degree Days  
Heating Degree Days 44    
Moisture  
Dew Point 16 °F    
Average Humidity 61    
Maximum Humidity 91    
Minimum Humidity 22    
Precipitation  
Precipitation 0.08 in - - ()
Sea Level Pressure  
Sea Level Pressure 29.90 in    
Wind  
Wind Speed 2 mph ()    
Max Wind Speed 12 mph    
Max Gust Speed 21 mph    
T = Trace of Precipitation, MM = Missing Value Source: Averaged Metar Reports

Daily Weather History Graph

Daily Weather History Graph

Search for Another Location

Airport or City:

Trip Planner

Search our weather history database for the weather conditions in past years. The results will help you decide how hot, cold, wet, or windy it might be!

Date:

Astronomy

Feb. 27, 2014 Rise Set
Actual Time 7:06 AM PST 5:52 PM PST
Civil Twilight 6:32 AM PST 6:26 PM PST
Nautical Twilight 5:53 AM PST 7:06 PM PST
Astronomical Twilight 5:14 AM PST 7:45 PM PST
Moon 5:51 AM PST (2/27) 4:19 PM PST (2/27)
Length of Visible Light 11h 54m
Length of Day
10h 46m
Waning Crescent, 3% of the Moon is Illuminated
Feb 27
Waning Crescent
Mar 1
New
Mar 8
First Quarter
Mar 16
Full
Mar 23
Last Quarter

Hourly Weather History & Observations

Time (PST) Temp. Windchill Dew Point Humidity Pressure Visibility Wind Dir Wind Speed Gust Speed Precip Events Conditions
12:00 AM 21.7 °F - 13.8 °F 72% 29.91 in - ESE 2.3 mph - N/A   Unknown
1:00 AM 22 °F - 15 °F 62% 29.89 in - ENE 1.2 mph - -  
1:00 AM 21.9 °F - 14.5 °F 73% 29.89 in - Calm Calm - N/A   Unknown
2:00 AM 22.3 °F - 16.0 °F 77% 29.88 in - Calm Calm - N/A   Unknown
3:00 AM 22.5 °F - 16.2 °F 77% 29.87 in - WNW 1.2 mph - N/A   Unknown
4:00 AM 23 °F - 16 °F 64% 29.86 in - SW 1.2 mph - -  
4:00 AM 22.8 °F - 15.8 °F 74% 29.86 in - Calm Calm - N/A   Unknown
5:00 AM 23.0 °F - 15.6 °F 73% 29.86 in - ENE 1.2 mph - N/A   Unknown
6:00 AM 22.6 °F - 18.0 °F 82% 29.86 in - East 1.2 mph - N/A   Unknown
7:00 AM 21 °F - 19 °F 90% 29.87 in - NNE 1.2 mph - -  
7:00 AM 21.4 °F - 19.2 °F 91% 29.87 in - NNE 1.2 mph - 0.06 in   Unknown
8:00 AM 22.5 °F - 20.3 °F 91% 29.88 in - Calm Calm - 0.01 in   Unknown
9:00 AM 24.4 °F - 20.8 °F 86% 29.88 in - Calm Calm - 0.01 in   Unknown
10:00 AM 26 °F - 22 °F 78% 29.88 in - Calm Calm - -  
10:00 AM 26.2 °F - 21.9 °F 84% 29.88 in - Calm Calm - N/A   Unknown
11:00 AM 29.5 °F - 24.1 °F 80% 29.87 in - Calm Calm - N/A   Unknown
12:00 PM 31.8 °F - 25.0 °F 76% 29.88 in - ESE 1.2 mph - N/A   Unknown
1:00 PM 34 °F - 21 °F 47% 29.87 in - ESE 5.8 mph - -  
1:00 PM 34.2 °F 29.0 °F 21.4 °F 60% 29.87 in - SE 5.8 mph - N/A   Unknown
2:00 PM 36.3 °F - 20.1 °F 52% 29.86 in - ESE 2.3 mph - N/A   Unknown
3:00 PM 37.4 °F - 17.6 °F 45% 29.86 in - NE 1.2 mph - N/A   Unknown
4:00 PM 37 °F - 12 °F 22% 29.88 in - NNE 9.2 mph - -  
4:00 PM 37.4 °F 29.8 °F 11.7 °F 35% 29.88 in - NNE 11.5 mph - N/A   Unknown
5:00 PM 35.2 °F 30.3 °F 12.7 °F 40% 29.90 in - NNE 5.8 mph - N/A   Unknown
6:00 PM 33.4 °F 25.9 °F 10.2 °F 38% 29.92 in - North 9.2 mph - N/A   Unknown
7:00 PM 32 °F - 10 °F 26% 29.95 in - NNE 8.1 mph - -  
7:00 PM 32.2 °F 25.8 °F 10.2 °F 40% 29.95 in - NNE 6.9 mph - N/A   Unknown
8:00 PM 30.4 °F 21.5 °F 10.0 °F 43% 29.96 in - NNE 10.4 mph - N/A   Unknown
9:00 PM 27.3 °F 18.4 °F 9.1 °F 46% 29.99 in - NE 9.2 mph 20.7 mph N/A   Unknown
10:00 PM 26 °F - 10 °F 35% 30.03 in - SE 9.2 mph - -  
10:00 PM 25.5 °F 15.5 °F 9.5 °F 51% 30.03 in - SE 10.4 mph - N/A   Unknown
11:00 PM 25.0 °F 19.3 °F 8.2 °F 49% 30.04 in - NNE 4.6 mph - N/A   Unknown